CAPE
52 28 28 66 36 28 9 50 21 59 43 16 3 15 11 17 5 31 0 0 0 0 0 0 0 0 0 0 0 0 0 0 0 1 0 0 0 0 0 0 0 0 0 0 0 0 0 0 0 0 0 0 0 0
35 46 33 38 36 59 12 9 16 37 41 28 4 19 15 26 4 0 0 0 0 0 0 0 0 0 0 0 0 0 0 0 0 0 0 0 0 0 0 0 0 0 0 0 0 0 0 0 0 0 0 0 0 0
21 38 34 19 18 19 52 27 16 54 65 3 15 33 19 15 4 0 0 1 0 0 0 0 0 0 0 0 0 0 0 0 0 0 0 0 0 0 0 0 0 0 0 0 0 0 0 0 0 0 0 0 0 0
8 10 23 13 15 10 11 26 32 6 8 14 16 10 7 5 4 2 1 1 1 0 0 0 0 0 0 0 1 0 0 0 0 0 0 0 0 0 0 0 0 0 0 0 0 0 0 0 0 0 0 0 0 0
11 9 3 18 3 15 20 5 13 35 29 17 11 18 11 1 0 0 1 3 3 0 0 0 0 0 0 0 0 0 0 0 0 0 0 0 0 0 0 0 0 0 7 0 0 0 1 0 0 0 0 0 0 0
12 5 7 23 9 16 22 6 4 1 0 0 0 0 0 0 0 0 0 0 0 1 0 0 0 0 0 0 0 0 0 0 0 0 0 0 0 0 0 0 0 0 0 0 0 0 0 0 0 0 0 0 0 0
6 10 11 18 20 15 14 4 4 5 6 4 0 0 0 0 0 0 0 0 0 0 0 0 0 0 0 0 0 0 0 0 0 0 0 0 0 0 0 0 0 0 0 0 0 0 0 0 0 0 0 0 0 0
1 5 9 6 13 8 17 26 6 0 0 0 0 0 0 0 0 0 0 0 0 0 0 0 0 0 0 0 0 0 0 0 0 0 0 0 0 0 0 0 0 0 0 0 0 0 0 0 0 0 0 0 0 0
0 0 5 2 0 0 3 5 4 0 0 0 0 0 0 0 0 0 0 0 0 0 0 0 0 0 0 0 0 0 0 0 0 0 0 0 0 0 0 0 0 0 0 0 0 0 0 0 0 0 0 0 0 0
0 0 0 2 0 0 0 0 0 0 0 0 0 0 0 0 0 0 0 0 0 0 0 0 0 0 0 0 0 0 0 0 0 0 0 0 0 0 0 0 0 0 0 0 0 0 0 0 0 0 0 0 0 0
0 0 0 0 0 0 0 0 0 0 0 0 0 0 0 0 0 0 0 0 0 0 0 0 0 0 0 0 0 0 0 0 0 0 0 0 0 0 0 0 0 0 0 0 0 0 0 0 0 0 0 0 0 0
0 0 0 0 0 0 0 0 0 0 0 0 0 0 0 0 0 0 0 0 0 0 0 0 0 0 0 0 0 0 0 0 0 0 0 0 0 0 0 0 0 0 0 0 0 0 0 0 0 0 0 0 0 0
0 0 0 0 0 0 0 0 0 0 0 0 0 0 0 0 0 0 0 0 0 0 0 0 0 0 0 0 0 0 0 0 0 0 0 0 0 0 0 0 0 0 0 0 0 0 0 0 0 0 0 0 0 0
0 0 0 0 0 0 0 0 0 0 0 0 0 0 0 0 0 0 0 0 0 0 0 0 0 0 0 0 0 0 0 0 0 0 0 0 0 0 0 0 0 0 0 0 0 0 0 0 0 0 0 0 0 0
0 0 0 0 0 0 0 0 0 0 0 0 0 0 0 0 0 0 0 0 0 0 0 0 0 0 0 0 0 0 0 0 0 0 0 0 0 0 0 0 0 0 0 0 0 0 0 0 0 0 0 0 0 0
0 0 0 0 0 0 0 0 0 0 0 0 0 0 0 0 0 0 0 0 0 0 0 0 0 0 0 0 0 0 0 0 0 0 0 0 0 0 0 0 0 0 0 0 0 0 0 0 0 0 0 0 0 0
0 0 0 0 0 0 0 0 0 0 0 0 0 0 0 0 0 0 0 0 0 0 0 0 0 0 0 0 0 0 0 0 0 0 0 0 0 0 0 0 0 0 0 0 0 0 0 0 0 0 0 0 0 0
0 0 0 0 0 0 0 0 0 0 0 0 0 0 0 0 0 0 0 0 0 0 0 0 0 0 0 0 0 0 0 0 0 0 0 0 0 0 0 0 0 0 0 0 0 0 0 0 0 0 0 0 0 0
0 0 0 0 0 0 0 0 0 0 0 0 0 0 0 0 0 0 0 0 0 0 0 0 0 0 0 0 0 0 0 0 0 0 0 0 0 0 0 0 0 0 0 0 0 0 0 0 0 0 0 0 0 0
0 0 0 0 0 0 0 0 0 0 0 0 0 0 0 0 0 0 0 0 0 0 0 0 0 0 0 0 0 0 0 0 0 0 0 0 0 0 0 0 0 0 0 0 0 0 0 0 0 0 0 0 0 0
0 0 0 0 0 0 0 0 0 0 0 0 0 0 0 0 0 0 0 0 0 0 0 0 0 0 0 0 0 0 0 0 0 0 0 0 0 0 0 0 0 0 1 1 0 0 0 0 0 0 0 0 0 0
0 0 0 0 0 0 0 0 0 0 0 0 0 0 0 0 0 0 0 0 0 0 0 0 0 0 0 0 0 0 0 0 0 0 0 0 0 0 0 0 0 0 0 0 0 0 0 0 0 0 0 0 0 0
0 0 0 0 0 0 0 0 0 0 0 0 0 0 0 0 0 0 0 0 0 0 0 0 0 0 0 0 0 0 0 0 0 0 0 0 0 0 0 0 0 0 0 0 0 0 0 0 0 0 0 0 0 0
0 0 0 0 0 0 0 0 0 0 0 0 0 0 0 0 0 0 0 0 0 0 0 0 0 0 0 0 0 0 0 0 0 0 0 0 0 0 0 0 0 0 0 0 0 0 0 0 0 0 0 0 0 0
0 0 0 0 0 0 0 0 0 0 0 0 0 0 0 0 0 0 0 0 0 0 0 0 0 0 0 0 0 0 0 0 0 0 0 0 0 0 0 0 0 0 0 0 0 0 0 0 0 0 0 0 0 0
0 0 0 0 0 0 0 0 0 0 0 0 0 0 0 0 0 0 0 0 0 0 0 0 0 0 0 0 0 0 0 0 0 0 0 0 0 0 0 0 0 0 0 0 0 0 0 0 0 0 0 0 0 0
0 0 0 0 0 0 0 0 0 0 0 0 0 0 0 0 0 0 0 0 0 0 0 0 0 0 0 0 0 0 0 0 0 0 0 0 0 0 0 0 0 0 0 0 0 0 0 0 0 0 0 0 0 0
0 0 0 0 0 0 0 0 0 0 0 0 0 0 0 0 0 0 0 0 0 0 0 0 0 0 0 0 0 0 0 0 0 0 0 0 0 0 0 0 0 0 0 0 0 0 0 0 0 0 0 0 0 0
0 0 0 0 0 0 0 0 0 0 0 0 0 0 0 0 0 0 0 0 0 0 0 0 0 0 0 0 0 0 0 0 0 0 0 0 0 0 0 0 0 0 0 0 0 0 0 0 0 0 0 0 0 0
0 0 0 0 0 0 0 0 0 0 0 0 0 0 0 0 0 0 0 0 0 0 0 0 0 0 0 0 0 0 0 0 0 0 0 0 0 0 0 0 0 0 0 0 0 0 0 0 0 0 0 0 0 0
0 0 0 0 0 0 0 0 0 0 0 0 0 0 0 0 0 0 0 0 0 0 0 0 0 0 0 0 0 0 0 0 0 0 0 0 0 0 0 0 0 0 0 0 0 0 0 0 0 0 0 0 0 0
0 0 0 0 0 0 0 0 0 0 0 0 0 0 0 0 0 0 0 0 0 0 0 0 0 0 0 0 0 0 0 0 0 0 0 0 0 0 0 0 0 0 0 0 0 0 0 0 0 0 0 0 0 0
0 0 0 0 0 0 0 0 0 0 0 0 0 0 0 0 0 0 0 0 0 0 0 0 0 0 0 0 0 0 0 0 0 0 0 6 6 4 0 0 0 0 0 0 0 0 0 0 0 0 0 0 0 0
CIN
0 -6 -4 -1 -2 -4 0 -2 -8 0 -1 -3 -4 -26 -19 -2 -1 0 0 0 0 0 0 0 0 0 -1 0 0 0 0 0 -2 -6 0 0 0 0 0 0 0 0 0 0 0 0 0 0 0 0 0 0 0 0
-1 0 -2 0 -1 -1 0 0 0 -18 -21 -20 -7 -26 -3 -12 -2 0 0 0 0 0 0 0 0 0 0 0 0 0 0 0 0 0 0 0 0 0 0 0 0 0 0 0 0 0 0 0 0 0 0 0 0 0
0 -1 0 0 -2 -1 -1 0 0 -1 -10 -59 -16 0 -1 -1 0 0 0 0 0 0 0 0 0 0 0 0 0 0 0 0 0 0 0 0 0 0 0 0 0 0 0 0 0 0 0 0 0 0 0 0 0 0
0 -1 -1 0 -1 -1 -1 -1 0 0 0 -4 -1 0 0 0 0 0 0 0 0 0 0 0 0 0 0 0 0 0 0 0 0 0 0 0 0 0 0 0 0 0 0 0 0 0 0 0 0 0 0 0 0 0
-1 -1 0 0 0 0 0 0 0 0 0 0 0 0 0 -1 0 0 0 0 0 0 0 0 0 0 0 0 0 0 0 0 0 0 0 0 0 0 0 0 0 0 0 0 0 0 0 0 0 0 0 0 0 0
0 -1 0 0 0 0 0 0 0 0 0 0 0 0 0 0 0 0 0 0 0 0 0 0 0 0 0 0 0 0 0 0 0 0 0 0 0 0 0 0 0 0 0 0 0 0 0 0 0 0 0 0 0 0
0 0 0 0 0 0 0 0 0 0 0 0 0 0 0 0 0 0 0 0 0 0 0 0 0 0 0 0 0 0 0 0 0 0 0 0 0 0 0 0 0 0 0 0 0 0 0 0 0 0 0 0 0 0
0 0 0 0 -1 0 0 0 0 0 0 0 0 0 0 0 0 0 0 0 0 0 0 0 0 0 0 0 0 0 0 0 0 0 0 0 0 0 0 0 0 0 0 0 0 0 0 0 0 0 0 0 0 0
0 0 0 0 0 0 0 0 0 0 0 0 0 0 0 0 0 0 0 0 0 0 0 0 0 0 0 0 0 0 0 0 0 0 0 0 0 0 0 0 0 0 0 0 0 0 0 0 0 0 0 0 0 0
0 0 0 0 0 0 0 0 0 0 0 0 0 0 0 0 0 0 0 0 0 0 0 0 0 0 0 0 0 0 0 0 0 0 0 0 0 0 0 0 0 0 0 0 0 0 0 0 0 0 0 0 0 0
0 0 0 0 0 0 0 0 0 0 0 0 0 0 0 0 0 0 0 0 0 0 0 0 0 0 0 0 0 0 0 0 0 0 0 0 0 0 0 0 0 0 0 0 0 0 0 0 0 0 0 0 0 0
0 0 0 0 0 0 0 0 0 0 0 0 0 0 0 0 0 0 0 0 0 0 0 0 0 0 0 0 0 0 0 0 0 0 0 0 0 0 0 0 0 0 0 0 0 0 0 0 0 0 0 0 0 0
0 0 0 0 0 0 0 0 0 0 0 0 0 0 0 0 0 0 0 0 0 0 0 0 0 0 0 0 0 0 0 0 0 0 0 0 0 0 0 0 0 0 0 0 0 0 0 0 0 0 0 0 0 0
0 0 0 0 0 0 0 0 0 0 0 0 0 0 0 0 0 0 0 0 0 0 0 0 0 0 0 0 0 0 0 0 0 0 0 0 0 0 0 0 0 0 0 0 0 0 0 0 0 0 0 0 0 0
0 0 0 0 0 0 0 0 0 0 0 0 0 0 0 0 0 0 0 0 0 0 0 0 0 0 0 0 0 0 0 0 0 0 0 0 0 0 0 0 0 0 0 0 0 0 0 0 0 0 0 0 0 0
0 0 0 0 0 0 0 0 0 0 0 0 0 0 0 0 0 0 0 0 0 0 0 0 0 0 0 0 0 0 0 0 0 0 0 0 0 0 0 0 0 0 0 0 0 0 0 0 0 0 0 0 0 0
0 0 0 0 0 0 0 0 0 0 0 0 0 0 0 0 0 0 0 0 0 0 0 0 0 0 0 0 0 0 0 0 0 0 0 0 0 0 0 0 0 0 0 0 0 0 0 0 0 0 0 0 0 0
0 0 0 0 0 0 0 0 0 0 0 0 0 0 0 0 0 0 0 0 0 0 0 0 0 0 0 0 0 0 0 0 0 0 0 0 0 0 0 0 0 0 0 0 0 0 0 0 0 0 0 0 0 0
0 0 0 0 0 0 0 0 0 0 0 0 0 0 0 0 0 0 0 0 0 0 0 0 0 0 0 0 0 0 0 0 0 0 0 0 0 0 0 0 0 0 0 0 0 0 0 0 0 0 0 0 0 0
0 0 0 0 0 0 0 0 0 0 0 0 0 0 0 0 0 0 0 0 0 0 0 0 0 0 0 0 0 0 0 0 0 0 0 0 0 0 0 0 0 0 0 0 0 0 0 0 0 0 0 0 0 0
0 0 0 0 0 0 0 0 0 0 0 0 0 0 0 0 0 0 0 0 0 0 0 0 0 0 0 0 0 0 0 0 0 0 0 0 0 0 0 0 0 0 0 0 0 0 0 0 0 0 0 0 0 0
0 0 0 0 0 0 0 0 0 0 0 0 0 0 0 0 0 0 0 0 0 0 0 0 0 0 0 0 0 0 0 0 0 0 0 0 0 0 0 0 0 0 0 0 0 0 0 0 0 0 0 0 0 0
0 0 0 0 0 0 0 0 0 0 0 0 0 0 0 0 0 0 0 0 0 0 0 0 0 0 0 0 0 0 0 0 0 0 0 0 0 0 0 0 0 0 0 0 0 0 0 0 0 0 0 0 0 0
0 0 0 0 0 0 0 0 0 0 0 0 0 0 0 0 0 0 0 0 0 0 0 0 0 0 0 0 0 0 0 0 0 0 0 0 0 0 0 0 0 0 0 0 0 0 0 0 0 0 0 0 0 0
0 0 0 0 0 0 0 0 0 0 0 0 0 0 0 0 0 0 0 0 0 0 0 0 0 0 0 0 0 0 0 0 0 0 0 0 0 0 0 0 0 0 0 0 0 0 0 0 0 0 0 0 0 0
0 0 0 0 0 0 0 0 0 0 0 0 0 0 0 0 0 0 0 0 0 0 0 0 0 0 0 0 0 0 0 0 0 0 0 0 0 0 0 0 0 0 0 0 0 0 0 0 0 0 0 0 0 0
0 0 0 0 0 0 0 0 0 0 0 0 0 0 0 0 0 0 0 0 0 0 0 0 0 0 0 0 0 0 0 0 0 0 0 0 0 0 0 0 0 0 0 0 0 0 0 0 0 0 0 0 0 0
0 0 0 0 0 0 0 0 0 0 0 0 0 0 0 0 0 0 0 0 0 0 0 0 0 0 0 0 0 0 0 0 0 0 0 0 0 0 0 0 0 0 0 0 0 0 0 0 0 0 0 0 0 0
0 0 0 0 0 0 0 0 0 0 0 0 0 0 0 0 0 0 0 0 0 0 0 0 0 0 0 0 0 0 0 0 0 0 0 0 0 0 0 0 0 0 0 0 0 0 0 0 0 0 0 0 0 0
0 0 0 0 0 0 0 0 0 0 0 0 0 0 0 0 0 0 0 0 0 0 0 0 0 0 0 0 0 0 0 0 0 0 0 0 0 0 0 0 0 0 0 0 0 0 0 0 0 0 0 0 0 0
0 0 0 0 0 0 0 0 0 0 0 0 0 0 0 0 0 0 0 0 0 0 0 0 0 0 0 0 0 0 0 0 0 0 0 0 0 0 0 0 0 0 0 0 0 0 0 0 0 0 0 0 0 0
0 0 0 0 0 0 0 0 0 0 0 0 0 0 0 0 0 0 0 0 0 0 0 0 0 0 0 0 0 0 0 0 0 0 0 0 0 0 0 0 0 0 0 0 0 0 0 0 0 0 0 0 0 0
0 0 0 0 0 0 0 0 0 0 0 0 0 0 0 0 0 0 0 0 0 0 0 0 0 0 0 0 0 0 0 0 0 0 0 0 0 -2 0 0 0 0 0 0 0 0 0 0 0 0 0 0 0 0
Wind_Speed
23 29 28 30 25 15 19 3 4 24 25 23 28 28 27 30 32 36 29 35 38 37 28 32 30 28 27 29 33 29 28 28 30 38 39 39 41 39 40 37 38 38 37 42 42 47 55 33 31 39 40 34 31 29
24 21 26 24 22 23 21 33 28 20 23 23 23 22 19 20 14 22 24 23 29 34 28 20 20 24 26 25 23 19 25 23 25 30 35 34 39 37 44 52 39 46 38 40 39 43 32 30 29 30 31 28 30 30
24 24 12 24 25 25 30 38 37 15 15 18 17 14 9 8 12 15 22 23 23 25 21 24 25 25 25 29 32 29 31 25 25 22 24 29 34 33 41 45 39 36 31 40 36 35 32 29 27 28 29 29 29 27
22 18 18 11 26 26 25 26 28 16 19 10 5 5 3 3 3 7 19 18 18 19 24 22 19 21 27 28 29 31 28 28 27 27 29 29 34 27 36 36 34 33 32 34 35 31 26 27 28 29 28 27 28 27
22 20 16 15 14 27 22 17 19 17 18 16 11 13 12 9 7 3 4 11 13 22 22 19 15 18 20 20 20 23 27 27 29 30 30 32 29 28 29 28 32 29 31 33 35 30 32 29 27 28 28 30 30 30
22 20 21 16 15 6 25 20 17 20 20 18 13 14 11 10 10 11 14 13 15 17 20 24 17 20 20 20 18 19 22 24 27 29 30 26 24 29 31 33 29 27 26 25 31 30 26 28 25 28 29 31 31 30
25 24 24 20 24 18 21 20 16 15 17 18 21 21 19 16 12 11 14 21 22 16 18 20 23 21 22 20 20 22 21 22 23 25 26 27 27 26 27 32 29 27 26 26 28 27 27 27 30 30 31 32 32 30
29 26 31 25 22 24 23 21 25 21 20 19 18 18 18 16 12 13 18 19 14 12 17 24 26 24 24 26 27 23 24 23 23 26 25 28 27 26 31 27 26 25 23 26 28 25 26 27 28 29 30 31 33 34
29 30 27 30 29 22 20 18 16 14 11 4 17 20 18 19 17 18 20 18 17 13 17 20 28 32 27 26 26 27 26 30 26 28 28 25 29 32 28 27 27 27 27 30 28 26 29 30 31 32 34 35 36 38
23 27 30 28 29 29 22 17 15 14 13 16 20 20 18 18 18 19 18 19 19 19 17 20 23 28 27 27 27 28 27 31 34 31 26 31 31 25 25 24 26 26 27 28 30 33 35 36 36 37 38 37 38 40
22 25 29 29 30 31 29 24 19 17 19 18 19 19 18 13 19 17 16 17 19 17 19 22 23 27 25 28 29 26 30 30 37 34 34 35 35 29 26 26 25 26 27 29 30 32 35 37 39 41 41 40 40 40
21 23 27 28 29 30 30 30 28 26 23 22 22 21 20 21 19 17 17 18 18 17 22 23 23 23 23 22 25 27 29 29 37 30 33 38 29 27 29 29 30 31 33 35 37 39 40 41 41 42 44 45 44 43
17 20 23 27 27 29 29 28 26 23 20 20 20 21 22 22 21 18 19 20 19 20 24 25 25 24 23 23 22 23 26 29 26 31 34 32 27 32 33 35 38 37 40 43 44 43 44 45 44 45 46 45 45 46
15 18 19 23 26 27 28 27 24 21 21 22 23 23 21 21 20 19 18 18 19 22 25 24 23 22 22 22 22 24 24 24 29 33 32 28 31 33 35 37 41 45 45 46 46 47 49 49 50 47 46 46 47 48
14 16 19 23 24 24 26 28 28 25 22 22 23 22 22 19 20 20 21 22 24 24 25 23 23 22 24 22 23 23 25 27 27 29 28 33 34 35 39 43 45 47 48 48 49 52 51 51 51 52 48 47 47 48
15 17 19 23 26 24 23 25 26 24 24 24 24 21 19 21 23 23 25 25 25 25 22 23 24 24 24 24 25 26 28 30 31 34 39 40 42 44 48 47 48 47 49 49 49 50 51 51 52 52 50 49 49 48
18 17 16 21 23 27 26 23 25 27 24 23 23 24 22 22 24 25 25 27 25 24 25 24 26 25 24 25 26 27 30 37 41 44 43 43 46 49 48 48 46 47 46 47 47 47 48 49 49 50 52 51 50 48
20 19 18 18 19 25 27 27 24 24 25 26 24 25 25 24 24 26 28 29 26 24 24 24 23 25 25 30 32 35 38 40 40 42 44 45 46 47 46 47 47 46 46 45 46 47 47 48 47 48 48 47 46 45
25 24 22 22 21 20 21 26 25 23 24 24 24 24 25 25 27 27 29 29 27 26 23 24 25 27 29 30 36 39 39 40 43 44 45 44 45 46 47 47 47 47 45 45 46 46 47 46 45 45 44 42 42 41
29 30 29 26 21 21 22 23 23 23 23 22 23 24 23 24 25 28 31 33 31 28 27 26 27 28 30 32 32 34 35 36 41 45 46 45 44 44 44 43 44 43 42 41 42 44 43 43 40 42 41 40 40 39
30 30 33 30 30 30 25 24 25 23 22 23 21 22 23 22 25 29 31 30 33 29 27 25 27 28 27 28 29 31 33 35 38 39 44 45 43 41 43 40 39 39 38 38 37 37 38 39 39 35 34 33 33 34
25 27 29 30 28 28 30 29 25 22 24 23 22 23 23 22 23 24 24 32 28 28 26 26 27 28 31 31 32 31 32 33 33 33 35 36 39 37 36 35 34 34 32 31 30 31 32 32 28 30 30 31 29 27
24 26 28 28 28 27 28 25 27 24 24 23 22 22 23 22 22 21 25 27 26 26 25 26 25 24 24 22 25 28 29 30 29 29 32 33 31 29 28 27 26 24 27 25 24 25 25 24 24 26 26 26 25 26
28 27 28 29 31 30 26 29 25 25 26 26 25 24 23 22 20 23 26 26 26 25 25 24 25 25 26 26 28 27 28 27 25 26 26 24 22 23 21 17 14 13 12 8 7 7 9 12 15 16 18 20 21 23
26 27 28 30 26 28 30 30 29 29 29 26 26 25 23 21 23 23 26 25 25 26 24 22 20 23 23 21 22 21 21 24 24 19 16 16 16 16 16 15 13 12 12 11 8 5 5 6 8 10 12 14 16 18
31 29 28 26 26 28 29 32 31 28 27 27 27 23 22 23 25 24 24 23 23 23 23 22 21 17 17 19 17 17 16 17 16 15 13 15 13 13 13 11 9 7 10 8 5 4 5 5 7 9 10 11 13 14
36 30 26 25 25 26 29 29 29 30 28 29 25 24 25 27 25 22 20 20 21 21 20 19 19 17 15 11 11 13 12 13 14 11 8 8 10 11 11 10 8 7 5 3 4 4 5 6 7 8 9 9 10 10
30 29 30 25 28 27 27 29 30 32 28 24 24 28 26 25 24 21 20 19 19 19 18 18 18 18 17 16 14 12 12 13 12 12 14 16 14 12 12 9 6 2 2 3 4 5 5 6 7 7 7 6 7 8
30 27 25 28 26 26 26 27 28 27 26 27 27 26 23 20 19 20 20 20 20 21 21 21 19 17 16 17 18 17 17 17 18 15 11 12 10 16 14 7 5 4 4 3 2 3 3 3 4 4 5 6 6 7
28 26 27 27 26 26 24 22 23 22 23 25 25 23 21 20 19 18 18 20 22 21 21 20 19 19 18 17 15 15 18 18 18 16 12 9 7 4 4 4 3 3 4 3 2 1 2 3 3 4 4 5 5 6
25 25 27 27 27 23 20 19 18 18 20 22 23 26 24 21 19 18 18 19 21 21 21 21 20 21 19 19 19 16 12 15 10 5 5 4 5 3 6 6 5 5 5 4 4 3 2 3 3 3 3 3 4 5
27 29 27 27 26 23 22 21 20 20 21 22 23 24 24 24 24 23 21 21 23 24 23 22 21 19 17 15 14 14 12 10 7 5 4 4 5 10 11 8 7 7 6 5 4 4 3 3 3 3 3 4 4 5
25 27 27 25 25 25 23 21 23 22 21 23 23 24 25 25 26 23 20 19 21 22 22 21 19 18 16 14 13 12 12 12 9 5 3 4 4 2 8 8 10 9 6 4 3 3 3 3 3 3 4 4 4 4
Wind_Direction
34 328 327 332 327 335 319 54 124 278 273 267 252 252 254 244 241 238 239 235 226 241 251 246 246 253 250 247 250 251 253 256 251 254 255 259 260 259 262 262 259 258 260 263 265 266 268 282 280 268 281 286 286 290
38 40 330 330 331 337 349 354 331 274 263 256 251 251 257 245 243 231 234 238 234 238 250 258 257 258 255 251 245 241 252 258 254 257 259 263 262 264 262 262 262 261 261 264 266 269 279 287 281 286 289 284 287 287
41 43 25 331 334 339 348 359 355 336 248 244 250 250 247 258 246 247 229 233 236 231 246 254 256 264 265 259 254 252 257 258 255 259 267 265 266 265 264 265 268 265 268 263 267 271 275 281 285 289 291 288 291 294
41 42 44 351 337 340 345 355 7 17 22 24 43 19 4 312 293 246 230 245 242 238 243 257 274 265 275 270 257 255 264 259 261 259 265 267 266 268 268 270 270 273 276 268 267 272 276 280 286 289 291 293 293 295
45 44 48 49 332 343 344 348 358 10 19 23 34 40 41 43 45 30 287 274 278 247 250 249 273 296 288 284 275 266 260 263 256 261 265 266 272 272 273 272 271 283 276 270 269 277 276 279 288 293 290 291 293 292
44 48 55 54 65 70 356 351 356 9 12 11 3 357 345 322 300 288 266 299 289 266 252 253 268 288 293 290 288 280 274 270 267 266 267 274 278 274 269 266 277 285 286 287 278 288 284 285 290 296 293 294 295 294
43 47 52 60 62 77 85 12 357 356 4 12 19 21 18 14 360 306 284 284 288 283 266 258 262 281 293 289 284 282 285 278 275 274 273 274 279 277 275 271 283 287 285 289 294 289 280 291 286 295 295 296 296 295
36 43 36 48 60 64 75 89 79 12 354 346 349 358 360 359 351 330 339 333 311 298 284 265 268 271 303 281 276 292 284 283 285 276 280 276 280 283 276 284 290 296 290 293 295 294 290 291 293 295 298 298 295 294
33 30 39 32 34 55 65 74 81 94 105 180 6 335 339 336 315 303 315 335 352 314 282 284 270 266 298 290 286 283 282 273 283 276 278 280 278 276 284 288 290 294 290 291 295 291 295 293 295 296 295 294 292 293
40 35 28 32 27 29 51 63 70 77 81 71 50 37 358 335 286 312 312 302 308 308 307 295 298 281 294 291 288 285 284 275 271 276 281 275 274 285 291 293 293 295 297 298 295 293 295 295 296 295 293 293 293 293
38 35 29 27 21 15 23 39 51 58 53 61 54 39 63 40 357 339 322 320 314 304 311 307 305 294 302 288 285 292 282 283 272 277 273 273 273 281 290 293 298 299 300 300 298 296 296 295 294 293 293 293 294 294
34 37 30 27 23 23 22 23 31 44 56 58 64 55 36 0 349 339 326 323 324 312 316 314 310 307 303 305 294 292 283 283 274 285 277 273 273 282 290 294 298 300 300 300 299 297 297 296 295 293 292 292 292 292
38 39 33 24 20 24 27 28 34 49 56 50 41 22 1 348 349 339 329 325 323 322 323 320 313 314 313 314 303 298 289 284 291 283 279 280 280 288 291 294 296 298 300 299 297 297 296 296 296 294 293 294 293 292
44 41 41 31 23 23 27 28 34 43 41 26 17 8 7 359 0 355 358 349 340 332 329 330 323 319 319 310 306 298 299 300 288 284 285 294 297 299 298 299 298 297 298 298 297 298 297 296 295 296 294 294 293 292
54 48 41 30 31 29 27 28 32 37 38 26 21 16 9 21 16 8 3 355 346 343 339 334 332 326 320 315 314 308 301 295 296 293 298 303 305 305 303 302 301 300 300 299 299 298 297 296 294 293 294 293 292 291
60 50 40 32 27 31 36 36 33 40 38 34 26 31 38 19 7 4 0 355 353 348 348 344 331 323 320 319 312 308 302 298 301 304 304 305 304 303 302 302 302 301 301 300 300 299 298 297 295 293 294 293 292 291
50 50 62 38 36 29 23 36 34 32 33 32 28 28 32 23 12 9 5 358 357 354 345 343 332 326 328 320 316 317 310 307 308 307 309 308 306 306 305 304 304 303 302 302 302 302 301 300 297 295 293 293 291 290
48 53 50 45 39 37 39 30 38 38 36 34 33 28 28 28 23 14 7 2 4 360 354 348 345 336 330 320 318 317 316 315 315 313 313 312 311 310 309 306 305 304 302 302 303 303 303 303 300 297 296 294 292 291
46 34 35 37 45 46 40 35 39 42 42 46 44 40 34 31 24 21 13 8 11 9 3 353 346 338 333 331 324 320 320 320 317 317 317 317 316 313 311 309 306 304 301 301 302 302 302 303 301 300 298 296 293 291
37 30 36 33 46 45 48 45 46 48 45 45 42 39 42 40 35 25 19 15 13 13 5 359 353 347 342 336 337 332 332 331 327 322 322 324 323 321 318 316 313 310 307 304 304 304 303 304 304 302 299 296 293 291
50 56 39 47 53 53 57 52 49 51 53 48 57 48 43 45 35 25 23 24 19 21 18 16 7 2 358 353 349 346 344 343 340 337 331 329 332 330 326 325 322 318 314 312 309 308 307 306 307 306 304 301 299 295
74 65 58 55 60 59 51 47 56 62 57 60 56 51 47 43 36 33 35 27 31 27 25 18 13 8 -0 358 356 358 358 356 355 355 353 351 347 347 344 341 337 333 328 323 320 317 314 312 309 306 306 302 303 303
73 64 60 54 57 56 54 59 57 59 55 53 57 53 48 48 47 48 40 35 34 31 29 26 22 24 21 22 18 15 14 13 13 12 9 8 11 11 12 11 10 8 354 353 344 333 323 310 305 295 302 299 296 294
64 62 57 53 51 56 62 55 60 59 56 53 52 52 51 52 54 49 39 37 34 32 34 33 30 28 27 27 24 24 24 25 25 25 26 31 35 38 43 51 64 78 93 120 146 181 223 252 270 277 279 283 281 284
65 58 61 57 63 59 54 52 53 52 50 52 53 52 53 56 51 49 41 37 34 33 35 36 40 38 35 36 34 36 37 35 34 34 40 48 50 53 61 72 83 96 107 114 127 159 198 224 242 254 263 269 270 278
60 62 63 65 63 58 56 50 48 51 53 53 51 55 55 55 51 48 42 39 38 37 36 37 39 42 45 43 41 40 40 41 41 41 42 57 59 63 66 72 82 102 113 125 150 196 223 236 252 262 265 270 274 273
57 61 67 70 69 67 60 56 55 53 52 50 50 53 55 50 49 49 47 48 43 41 42 43 44 45 45 43 47 49 48 50 50 46 36 53 69 77 79 79 84 99 138 174 175 189 220 247 256 261 263 261 255 247
61 60 60 63 63 62 59 54 52 50 51 53 55 52 53 51 49 50 49 49 46 44 44 48 51 51 49 48 49 51 53 54 49 58 62 66 73 76 81 88 99 139 187 202 206 212 217 230 247 253 245 228 232 233
57 56 61 58 59 57 56 56 57 59 58 56 54 54 55 60 58 54 53 50 47 44 43 46 49 52 54 53 54 54 56 56 55 52 42 48 50 66 69 71 84 99 113 137 182 199 199 206 188 193 210 205 214 223
54 55 57 56 56 56 60 66 66 66 62 58 57 57 59 61 63 63 57 50 46 45 46 47 47 49 51 51 52 56 59 61 61 58 54 42 38 15 12 38 68 91 100 118 134 168 209 170 195 205 251 236 245 241
53 56 57 56 56 62 66 67 66 64 62 59 57 53 53 58 61 63 59 54 49 47 47 47 48 49 50 50 49 50 52 61 58 26 54 33 13 55 79 79 78 92 104 120 131 146 186 179 188 198 220 247 257 259
52 52 54 54 56 61 63 64 64 63 63 59 57 54 53 56 54 55 58 56 48 47 48 47 47 47 51 54 55 56 55 49 41 31 357 343 345 76 83 89 92 92 105 124 136 149 168 181 182 210 225 248 259 264
54 53 54 58 58 57 61 65 63 62 64 60 58 55 53 55 53 55 59 62 54 51 50 50 50 50 51 53 55 55 54 53 47 29 352 320 308 3 88 98 100 102 112 140 162 181 199 204 222 237 242 240 241 252